TimeMST,TemperatureF,Dew PointF,Humidity,Sea Level PressureIn,VisibilityMPH,Wind Direction,Wind SpeedMPH,Gust SpeedMPH,PrecipitationIn,Events,Conditions,WindDirDegrees,DateUTC
1:50 AM,69,58,61,29.94,2,Calm,Calm,,,,Partly Cloudy,,2012-11-21 08:50:00
4:50 AM,67,52,48,29.94,2,Calm,Calm,,,,,,2012-11-21 11:50:00
6:01 AM,60.8,48.2,63,29.98,10.0,South,4.6,-,N/A,,Scattered Clouds,180,2012-11-21 13:01:00
6:40 AM,59.0,50.0,72,30.00,10.0,South,3.5,-,N/A,,Scattered Clouds,190,2012-11-21 13:40:00
7:47 AM,62.6,51.8,68,30.07,10.0,Calm,Calm,-,N/A,,Partly Cloudy,0,2012-11-21 14:47:00
7:50 AM,71,52,41,30.01,12,Calm,Calm,,,,Scattered Clouds,,2012-11-21 14:50:00
8:43 AM,71.6,51.8,50,30.04,10.0,Calm,Calm,-,N/A,,Partly Cloudy,0,2012-11-21 15:43:00
9:48 AM,78.8,51.8,39,30.05,10.0,NNW,4.6,-,N/A,,Clear,340,2012-11-21 16:48:00
10:44 AM,80.6,57.2,45,30.09,10.0,WNW,6.9,-,N/A,,Clear,300,2012-11-21 17:44:00
10:50 AM,84,64,41,30.03,19,Calm,Calm,,,,,,2012-11-21 17:50:00
11:51 AM,80.6,62.6,54,30.01,12.0,NNW,11.5,-,N/A,,Clear,330,2012-11-21 18:51:00
12:44 PM,82.4,64.4,54,29.98,12.0,North,13.8,-,N/A,,Clear,360,2012-11-21 19:44:00
1:44 PM,82.4,64.4,54,30.02,12.0,North,11.5,-,N/A,,Clear,360,2012-11-21 20:44:00
1:50 PM,87,67,42,29.96,19,NW,4.5,,,,,320,2012-11-21 20:50:00
2:46 PM,84.2,60.8,45,29.94,12.0,North,5.8,-,N/A,,Clear,360,2012-11-21 21:46:00
3:40 PM,82.4,64.4,54,29.93,12.0,NW,5.8,-,N/A,,Partly Cloudy,320,2012-11-21 22:40:00
4:42 PM,80.6,62.6,54,29.98,12.0,NNW,6.9,-,N/A,,Clear,330,2012-11-21 23:42:00
4:45 PM,85,65,41,29.90,19,NNW,4.5,,,,,330,2012-11-21 23:45:00
5:41 PM,78.8,62.6,57,29.95,12.0,WNW,6.9,-,N/A,,Clear,300,2012-11-22 00:41:00
6:43 PM,75.2,62.6,65,29.97,12.0,West,3.5,-,N/A,,Clear,280,2012-11-22 01:43:00
7:43 PM,71.6,60.8,69,30.04,12.0,South,4.6,-,N/A,,Clear,190,2012-11-22 02:43:00
7:45 PM,78,67,61,29.96,2,West,2.2,,,,,270,2012-11-22 02:45:00
8:43 PM,69.8,62.6,78,30.00,12.0,Calm,Calm,-,N/A,,Clear,0,2012-11-22 03:43:00
9:40 PM,66.2,59.0,78,30.01,12.0,South,3.5,-,N/A,,Clear,190,2012-11-22 04:40:00
10:50 PM,74,65,67,29.99,2,Calm,Calm,,,,Clear,,2012-11-22 05:50:00
10:51 PM,66.2,60.8,83,30.06,10.0,South,4.6,-,N/A,,Partly Cloudy,180,2012-11-22 05:51:00